Location: Dattensoll
(49.9928°N, 9.8954°E)
Time: 00:36:11
(UTC+00:00)

USA 59 Rocket - Pass Details

Date: 19 May 2025
Orbit: 373 x 1695 km, 63.3° (Epoch: 22 June)

Event Time Altitude Azimuth Distance (km) Brightness Sun altitude
Exits shadow 22:10:36 46° 90° (E) 547 -0.4 -18.5°
Drops below altitude 10° 22:12:59 10° 51° (NE) 1,398 2.2 -18.6°
Sets 22:14:56 0° 47° (NE) 2,244 3.3 -18.7°
